Year,Month,Day,Hour,Minute,Value (Times are PST for insolation in W/m^2)
2008,08,03,00,00,0.00
2008,08,03,00,01,0.00
2008,08,03,00,02,0.00
2008,08,03,00,03,0.00
2008,08,03,00,04,0.00
2008,08,03,00,05,0.00
2008,08,03,00,06,0.00
2008,08,03,00,07,0.00
2008,08,03,00,08,0.00
2008,08,03,00,09,0.00
2008,08,03,00,10,0.00
2008,08,03,00,11,0.00
2008,08,03,00,12,0.00
2008,08,03,00,13,0.00
2008,08,03,00,14,0.00
2008,08,03,00,15,0.00
2008,08,03,00,16,0.00
2008,08,03,00,17,0.00
2008,08,03,00,18,0.00
2008,08,03,00,19,0.00
2008,08,03,00,20,0.00
2008,08,03,00,21,0.00
2008,08,03,00,22,0.00
2008,08,03,00,23,0.00
2008,08,03,00,24,0.00
2008,08,03,00,25,0.00
2008,08,03,00,26,0.00
2008,08,03,00,27,0.00
2008,08,03,00,28,0.00
2008,08,03,00,29,0.00
2008,08,03,00,30,0.00
2008,08,03,00,31,0.00
2008,08,03,00,32,0.00
2008,08,03,00,33,0.00
2008,08,03,00,34,0.00
2008,08,03,00,35,0.00
2008,08,03,00,36,0.00
2008,08,03,00,37,0.00
2008,08,03,00,38,0.00
2008,08,03,00,39,0.00
2008,08,03,00,40,0.00
2008,08,03,00,41,0.00
2008,08,03,00,42,0.00
2008,08,03,00,43,0.00
2008,08,03,00,44,0.00
2008,08,03,00,45,0.00
2008,08,03,00,46,0.00
2008,08,03,00,47,0.00
2008,08,03,00,48,0.00
2008,08,03,00,49,0.00
2008,08,03,00,50,0.00
2008,08,03,00,51,0.00
2008,08,03,00,52,0.00
2008,08,03,00,53,0.00
2008,08,03,00,54,0.00
2008,08,03,00,55,0.00
2008,08,03,00,56,0.00
2008,08,03,00,57,0.00
2008,08,03,00,58,0.00
2008,08,03,00,59,0.00
2008,08,03,01,00,0.00
2008,08,03,01,01,0.00
2008,08,03,01,02,0.00
2008,08,03,01,03,0.00
2008,08,03,01,04,0.00
2008,08,03,01,05,0.00
2008,08,03,01,06,0.00
2008,08,03,01,07,0.00
2008,08,03,01,08,0.00
2008,08,03,01,09,0.00
2008,08,03,01,10,0.00
2008,08,03,01,11,0.00
2008,08,03,01,12,0.00
2008,08,03,01,13,0.00
2008,08,03,01,14,0.00
2008,08,03,01,15,0.00
2008,08,03,01,16,0.00
2008,08,03,01,17,0.00
2008,08,03,01,18,0.00
2008,08,03,01,19,0.00
2008,08,03,01,20,0.00
2008,08,03,01,21,0.00
2008,08,03,01,22,0.00
2008,08,03,01,23,0.00
2008,08,03,01,24,0.00
2008,08,03,01,25,0.00
2008,08,03,01,26,0.00
2008,08,03,01,27,0.00
2008,08,03,01,28,0.00
2008,08,03,01,29,0.00
2008,08,03,01,30,0.00
2008,08,03,01,31,0.00
2008,08,03,01,32,0.00
2008,08,03,01,33,0.00
2008,08,03,01,34,0.00
2008,08,03,01,35,0.00
2008,08,03,01,36,0.00
2008,08,03,01,37,0.00
2008,08,03,01,38,0.00
2008,08,03,01,39,0.00
2008,08,03,01,40,0.00
2008,08,03,01,41,0.00
2008,08,03,01,42,0.00
2008,08,03,01,43,0.00
2008,08,03,01,44,0.00
2008,08,03,01,45,0.00
2008,08,03,01,46,0.00
2008,08,03,01,47,0.00
2008,08,03,01,48,0.00
2008,08,03,01,49,0.00
2008,08,03,01,50,0.00
2008,08,03,01,51,0.00
2008,08,03,01,52,0.00
2008,08,03,01,53,0.00
2008,08,03,01,54,0.00
2008,08,03,01,55,0.00
2008,08,03,01,56,0.00
2008,08,03,01,57,0.00
2008,08,03,01,58,0.00
2008,08,03,01,59,0.00
2008,08,03,02,00,0.00
2008,08,03,02,01,0.00
2008,08,03,02,02,0.00
2008,08,03,02,03,0.00
2008,08,03,02,04,0.00
2008,08,03,02,05,0.00
2008,08,03,02,06,0.00
2008,08,03,02,07,0.00
2008,08,03,02,08,0.00
2008,08,03,02,09,0.00
2008,08,03,02,10,0.00
2008,08,03,02,11,0.00
2008,08,03,02,12,0.00
2008,08,03,02,13,0.00
2008,08,03,02,14,0.00
2008,08,03,02,15,0.00
2008,08,03,02,16,0.00
2008,08,03,02,17,0.00
2008,08,03,02,18,0.00
2008,08,03,02,19,0.00
2008,08,03,02,20,0.00
2008,08,03,02,21,0.00
2008,08,03,02,22,0.00
2008,08,03,02,23,0.00
2008,08,03,02,24,0.00
2008,08,03,02,25,0.00
2008,08,03,02,26,0.00
2008,08,03,02,27,0.00
2008,08,03,02,28,0.00
2008,08,03,02,29,0.00
2008,08,03,02,30,0.00
2008,08,03,02,31,0.00
2008,08,03,02,32,0.00
2008,08,03,02,33,0.00
2008,08,03,02,34,0.00
2008,08,03,02,35,0.00
2008,08,03,02,36,0.00
2008,08,03,02,37,0.00
2008,08,03,02,38,0.00
2008,08,03,02,39,0.00
2008,08,03,02,40,0.00
2008,08,03,02,41,0.00
2008,08,03,02,42,0.00
2008,08,03,02,43,0.00
2008,08,03,02,44,0.00
2008,08,03,02,45,0.00
2008,08,03,02,46,0.00
2008,08,03,02,47,0.00
2008,08,03,02,48,0.00
2008,08,03,02,49,0.00
2008,08,03,02,50,0.00
2008,08,03,02,51,0.00
2008,08,03,02,52,0.00
2008,08,03,02,53,0.00
2008,08,03,02,54,0.00
2008,08,03,02,55,0.00
2008,08,03,02,56,0.00
2008,08,03,02,57,0.00
2008,08,03,02,58,0.00
2008,08,03,02,59,0.00
2008,08,03,03,00,0.00
2008,08,03,03,01,0.00
2008,08,03,03,02,0.00
2008,08,03,03,03,0.00
2008,08,03,03,04,0.00
2008,08,03,03,05,0.00
2008,08,03,03,06,0.00
2008,08,03,03,07,0.00
2008,08,03,03,08,0.00
2008,08,03,03,09,0.00
2008,08,03,03,10,0.00
2008,08,03,03,11,0.00
2008,08,03,03,12,0.00
2008,08,03,03,13,0.00
2008,08,03,03,14,0.00
2008,08,03,03,15,0.00
2008,08,03,03,16,0.00
2008,08,03,03,17,0.00
2008,08,03,03,18,0.00
2008,08,03,03,19,0.00
2008,08,03,03,20,0.00
2008,08,03,03,21,0.00
2008,08,03,03,22,0.00
2008,08,03,03,23,0.00
2008,08,03,03,24,0.00
2008,08,03,03,25,0.00
2008,08,03,03,26,0.00
2008,08,03,03,27,0.00
2008,08,03,03,28,0.00
2008,08,03,03,29,0.00
2008,08,03,03,30,0.00
2008,08,03,03,31,0.00
2008,08,03,03,32,0.00
2008,08,03,03,33,0.00
2008,08,03,03,34,0.00
2008,08,03,03,35,0.00
2008,08,03,03,36,0.00
2008,08,03,03,37,0.00
2008,08,03,03,38,0.00
2008,08,03,03,39,0.00
2008,08,03,03,40,0.00
2008,08,03,03,41,0.00
2008,08,03,03,42,0.00
2008,08,03,03,43,0.00
2008,08,03,03,44,0.00
2008,08,03,03,45,0.00
2008,08,03,03,46,0.00
2008,08,03,03,47,0.00
2008,08,03,03,48,0.00
2008,08,03,03,49,0.00
2008,08,03,03,50,0.00
2008,08,03,03,51,0.00
2008,08,03,03,52,0.00
2008,08,03,03,53,0.00
2008,08,03,03,54,0.00
2008,08,03,03,55,0.00
2008,08,03,03,56,0.00
2008,08,03,03,57,0.00
2008,08,03,03,58,0.00
2008,08,03,03,59,0.00
2008,08,03,04,00,0.00
2008,08,03,04,01,0.00
2008,08,03,04,02,0.00
2008,08,03,04,03,0.00
2008,08,03,04,04,0.00
2008,08,03,04,05,0.00
2008,08,03,04,06,0.00
2008,08,03,04,07,0.00
2008,08,03,04,08,0.00
2008,08,03,04,09,0.00
2008,08,03,04,10,0.00
2008,08,03,04,11,0.00
2008,08,03,04,12,0.00
2008,08,03,04,13,0.00
2008,08,03,04,14,0.00
2008,08,03,04,15,0.00
2008,08,03,04,16,0.00
2008,08,03,04,17,0.00
2008,08,03,04,18,0.00
2008,08,03,04,19,0.00
2008,08,03,04,20,0.00
2008,08,03,04,21,0.00
2008,08,03,04,22,0.00
2008,08,03,04,23,0.00
2008,08,03,04,24,0.00
2008,08,03,04,25,0.00
2008,08,03,04,26,0.00
2008,08,03,04,27,0.00
2008,08,03,04,28,0.00
2008,08,03,04,29,0.00
2008,08,03,04,30,0.00
2008,08,03,04,31,0.00
2008,08,03,04,32,0.00
2008,08,03,04,33,0.00
2008,08,03,04,34,0.00
2008,08,03,04,35,0.00
2008,08,03,04,36,0.00
2008,08,03,04,37,0.00
2008,08,03,04,38,0.00
2008,08,03,04,39,0.00
2008,08,03,04,40,0.00
2008,08,03,04,41,0.00
2008,08,03,04,42,0.00
2008,08,03,04,43,0.00
2008,08,03,04,44,0.00
2008,08,03,04,45,0.00
2008,08,03,04,46,0.00
2008,08,03,04,47,0.00
2008,08,03,04,48,0.00
2008,08,03,04,49,0.00
2008,08,03,04,50,0.00
2008,08,03,04,51,0.00
2008,08,03,04,52,0.00
2008,08,03,04,53,0.00
2008,08,03,04,54,0.00
2008,08,03,04,55,0.00
2008,08,03,04,56,0.00
2008,08,03,04,57,0.00
2008,08,03,04,58,0.00
2008,08,03,04,59,0.00
2008,08,03,05,00,0.00
2008,08,03,05,01,0.00
2008,08,03,05,02,0.00
2008,08,03,05,03,0.00
2008,08,03,05,04,0.00
2008,08,03,05,05,0.00
2008,08,03,05,06,0.00
2008,08,03,05,07,0.00
2008,08,03,05,08,0.00
2008,08,03,05,09,0.00
2008,08,03,05,10,0.00
2008,08,03,05,11,0.00
2008,08,03,05,12,0.00
2008,08,03,05,13,0.00
2008,08,03,05,14,0.00
2008,08,03,05,15,0.00
2008,08,03,05,16,0.00
2008,08,03,05,17,0.00
2008,08,03,05,18,0.00
2008,08,03,05,19,0.00
2008,08,03,05,20,0.00
2008,08,03,05,21,0.00
2008,08,03,05,22,0.00
2008,08,03,05,23,0.00
2008,08,03,05,24,0.00
2008,08,03,05,25,0.00
2008,08,03,05,26,0.00
2008,08,03,05,27,0.00
2008,08,03,05,28,0.00
2008,08,03,05,29,0.00
2008,08,03,05,30,0.00
2008,08,03,05,31,0.00
2008,08,03,05,32,0.00
2008,08,03,05,33,0.00
2008,08,03,05,34,0.00
2008,08,03,05,35,0.00
2008,08,03,05,36,0.00
2008,08,03,05,37,0.00
2008,08,03,05,38,0.00
2008,08,03,05,39,0.00
2008,08,03,05,40,0.00
2008,08,03,05,41,0.00
2008,08,03,05,42,0.00
2008,08,03,05,43,0.00
2008,08,03,05,44,0.00
2008,08,03,05,45,0.00
2008,08,03,05,46,0.00
2008,08,03,05,47,0.00
2008,08,03,05,48,0.00
2008,08,03,05,49,0.00
2008,08,03,05,50,0.00
2008,08,03,05,51,0.00
2008,08,03,05,52,0.20
2008,08,03,05,53,5.00
2008,08,03,05,54,5.00
2008,08,03,05,55,5.00
2008,08,03,05,56,5.00
2008,08,03,05,57,5.00
2008,08,03,05,58,7.00
2008,08,03,05,59,7.00
2008,08,03,06,00,7.00
2008,08,03,06,01,7.00
2008,08,03,06,02,8.60
2008,08,03,06,03,9.00
2008,08,03,06,04,9.00
2008,08,03,06,05,9.60
2008,08,03,06,06,11.00
2008,08,03,06,07,11.50
2008,08,03,06,08,12.00
2008,08,03,06,09,12.00
2008,08,03,06,10,16.20
2008,08,03,06,11,18.20
2008,08,03,06,12,19.90
2008,08,03,06,13,21.00
2008,08,03,06,14,22.40
2008,08,03,06,15,23.00
2008,08,03,06,16,20.40
2008,08,03,06,17,16.00
2008,08,03,06,18,16.00
2008,08,03,06,19,16.00
2008,08,03,06,20,16.00
2008,08,03,06,21,16.00
2008,08,03,06,22,18.60
2008,08,03,06,23,23.60
2008,08,03,06,24,22.90
2008,08,03,06,25,19.60
2008,08,03,06,26,18.30
2008,08,03,06,27,26.00
2008,08,03,06,28,36.20
2008,08,03,06,29,32.00
2008,08,03,06,30,28.10
2008,08,03,06,31,25.60
2008,08,03,06,32,40.10
2008,08,03,06,33,35.20
2008,08,03,06,34,39.20
2008,08,03,06,35,47.00
2008,08,03,06,36,55.70
2008,08,03,06,37,61.50
2008,08,03,06,38,72.00
2008,08,03,06,39,76.10
2008,08,03,06,40,77.90
2008,08,03,06,41,81.90
2008,08,03,06,42,83.60
2008,08,03,06,43,85.60
2008,08,03,06,44,87.50
2008,08,03,06,45,90.10
2008,08,03,06,46,93.50
2008,08,03,06,47,95.80
2008,08,03,06,48,97.50
2008,08,03,06,49,101.10
2008,08,03,06,50,103.90
2008,08,03,06,51,107.20
2008,08,03,06,52,109.50
2008,08,03,06,53,112.30
2008,08,03,06,54,115.00
2008,08,03,06,55,117.60
2008,08,03,06,56,120.00
2008,08,03,06,57,121.50
2008,08,03,06,58,125.60
2008,08,03,06,59,127.40
2008,08,03,07,00,129.00
2008,08,03,07,01,131.40
2008,08,03,07,02,134.00
2008,08,03,07,03,135.70
2008,08,03,07,04,139.60
2008,08,03,07,05,141.50
2008,08,03,07,06,143.40
2008,08,03,07,07,145.80
2008,08,03,07,08,148.00
2008,08,03,07,09,151.30
2008,08,03,07,10,153.70
2008,08,03,07,11,155.50
2008,08,03,07,12,157.40
2008,08,03,07,13,159.80
2008,08,03,07,14,162.10
2008,08,03,07,15,163.90
2008,08,03,07,16,167.90
2008,08,03,07,17,170.10
2008,08,03,07,18,171.70
2008,08,03,07,19,173.80
2008,08,03,07,20,177.70
2008,08,03,07,21,179.30
2008,08,03,07,22,181.70
2008,08,03,07,23,184.30
2008,08,03,07,24,187.20
2008,08,03,07,25,189.90
2008,08,03,07,26,192.90
2008,08,03,07,27,195.50
2008,08,03,07,28,197.00
2008,08,03,07,29,199.50
2008,08,03,07,30,203.60
2008,08,03,07,31,205.50
2008,08,03,07,32,209.20
2008,08,03,07,33,211.50
2008,08,03,07,34,213.50
2008,08,03,07,35,215.30
2008,08,03,07,36,217.40
2008,08,03,07,37,220.00
2008,08,03,07,38,223.30
2008,08,03,07,39,226.10
2008,08,03,07,40,229.40
2008,08,03,07,41,231.30
2008,08,03,07,42,235.40
2008,08,03,07,43,237.00
2008,08,03,07,44,239.60
2008,08,03,07,45,243.30
2008,08,03,07,46,246.10
2008,08,03,07,47,249.40
2008,08,03,07,48,250.80
2008,08,03,07,49,252.70
2008,08,03,07,50,257.20
2008,08,03,07,51,259.40
2008,08,03,07,52,263.10
2008,08,03,07,53,266.10
2008,08,03,07,54,268.80
2008,08,03,07,55,269.30
2008,08,03,07,56,276.60
2008,08,03,07,57,279.60
2008,08,03,07,58,281.90
2008,08,03,07,59,286.10
2008,08,03,08,00,287.90
2008,08,03,08,01,292.20
2008,08,03,08,02,295.50
2008,08,03,08,03,298.70
2008,08,03,08,04,301.60
2008,08,03,08,05,304.60
2008,08,03,08,06,307.90
2008,08,03,08,07,310.90
2008,08,03,08,08,313.80
2008,08,03,08,09,316.90
2008,08,03,08,10,320.50
2008,08,03,08,11,322.80
2008,08,03,08,12,326.20
2008,08,03,08,13,329.10
2008,08,03,08,14,331.20
2008,08,03,08,15,334.90
2008,08,03,08,16,337.10
2008,08,03,08,17,338.80
2008,08,03,08,18,339.00
2008,08,03,08,19,343.30
2008,08,03,08,20,345.30
2008,08,03,08,21,346.80
2008,08,03,08,22,349.30
2008,08,03,08,23,352.10
2008,08,03,08,24,354.70
2008,08,03,08,25,359.20
2008,08,03,08,26,361.40
2008,08,03,08,27,365.10
2008,08,03,08,28,366.70
2008,08,03,08,29,368.50
2008,08,03,08,30,371.00
2008,08,03,08,31,374.00
2008,08,03,08,32,376.20
2008,08,03,08,33,380.00
2008,08,03,08,34,383.50
2008,08,03,08,35,386.80
2008,08,03,08,36,388.00
2008,08,03,08,37,390.70
2008,08,03,08,38,394.80
2008,08,03,08,39,397.70
2008,08,03,08,40,400.40
2008,08,03,08,41,403.70
2008,08,03,08,42,406.20
2008,08,03,08,43,410.20
2008,08,03,08,44,411.00
2008,08,03,08,45,413.30
2008,08,03,08,46,417.30
2008,08,03,08,47,419.90
2008,08,03,08,48,422.50
2008,08,03,08,49,428.00
2008,08,03,08,50,431.50
2008,08,03,08,51,432.00
2008,08,03,08,52,435.20
2008,08,03,08,53,438.90
2008,08,03,08,54,439.40
2008,08,03,08,55,443.60
2008,08,03,08,56,445.50
2008,08,03,08,57,448.50
2008,08,03,08,58,451.30
2008,08,03,08,59,457.00
2008,08,03,09,00,457.30
2008,08,03,09,01,459.60
2008,08,03,09,02,461.50
2008,08,03,09,03,464.60
2008,08,03,09,04,467.70
2008,08,03,09,05,469.00
2008,08,03,09,06,473.50
2008,08,03,09,07,476.50
2008,08,03,09,08,479.10
2008,08,03,09,09,482.10
2008,08,03,09,10,484.40
2008,08,03,09,11,489.00
2008,08,03,09,12,490.40
2008,08,03,09,13,493.30
2008,08,03,09,14,497.70
2008,08,03,09,15,499.00
2008,08,03,09,16,502.80
2008,08,03,09,17,506.10
2008,08,03,09,18,508.50
2008,08,03,09,19,510.80
2008,08,03,09,20,513.80
2008,08,03,09,21,516.60
2008,08,03,09,22,519.70
2008,08,03,09,23,522.10
2008,08,03,09,24,524.50
2008,08,03,09,25,527.10
2008,08,03,09,26,530.00
2008,08,03,09,27,532.40
2008,08,03,09,28,533.80
2008,08,03,09,29,536.20
2008,08,03,09,30,540.80
2008,08,03,09,31,543.80
2008,08,03,09,32,546.00
2008,08,03,09,33,547.80
2008,08,03,09,34,549.60
2008,08,03,09,35,554.10
2008,08,03,09,36,555.50
2008,08,03,09,37,557.80
2008,08,03,09,38,561.50
2008,08,03,09,39,563.70
2008,08,03,09,40,566.00
2008,08,03,09,41,566.70
2008,08,03,09,42,571.60
2008,08,03,09,43,574.00
2008,08,03,09,44,576.30
2008,08,03,09,45,577.70
2008,08,03,09,46,579.60
2008,08,03,09,47,584.10
2008,08,03,09,48,586.30
2008,08,03,09,49,589.00
2008,08,03,09,50,591.10
2008,08,03,09,51,593.40
2008,08,03,09,52,596.00
2008,08,03,09,53,598.50
2008,08,03,09,54,601.70
2008,08,03,09,55,604.10
2008,08,03,09,56,605.70
2008,08,03,09,57,607.80
2008,08,03,09,58,609.80
2008,08,03,09,59,612.70
2008,08,03,10,00,615.70
2008,08,03,10,01,619.20
2008,08,03,10,02,621.00
2008,08,03,10,03,621.90
2008,08,03,10,04,626.10
2008,08,03,10,05,628.20
2008,08,03,10,06,629.80
2008,08,03,10,07,632.10
2008,08,03,10,08,634.50
2008,08,03,10,09,635.90
2008,08,03,10,10,640.00
2008,08,03,10,11,640.80
2008,08,03,10,12,643.80
2008,08,03,10,13,645.00
2008,08,03,10,14,647.60
2008,08,03,10,15,649.00
2008,08,03,10,16,654.20
2008,08,03,10,17,656.00
2008,08,03,10,18,656.40
2008,08,03,10,19,658.30
2008,08,03,10,20,660.30
2008,08,03,10,21,659.00
2008,08,03,10,22,661.50
2008,08,03,10,23,665.30
2008,08,03,10,24,668.00
2008,08,03,10,25,669.30
2008,08,03,10,26,672.50
2008,08,03,10,27,673.00
2008,08,03,10,28,677.30
2008,08,03,10,29,678.30
2008,08,03,10,30,679.50
2008,08,03,10,31,683.40
2008,08,03,10,32,685.40
2008,08,03,10,33,687.20
2008,08,03,10,34,691.50
2008,08,03,10,35,694.70
2008,08,03,10,36,694.90
2008,08,03,10,37,694.00
2008,08,03,10,38,697.60
2008,08,03,10,39,698.10
2008,08,03,10,40,700.60
2008,08,03,10,41,704.50
2008,08,03,10,42,706.10
2008,08,03,10,43,706.50
2008,08,03,10,44,707.70
2008,08,03,10,45,710.30
2008,08,03,10,46,717.70
2008,08,03,10,47,725.50
2008,08,03,10,48,723.90
2008,08,03,10,49,732.90
2008,08,03,10,50,756.80
2008,08,03,10,51,749.00
2008,08,03,10,52,740.00
2008,08,03,10,53,728.00
2008,08,03,10,54,728.50
2008,08,03,10,55,729.00
2008,08,03,10,56,733.80
2008,08,03,10,57,697.20
2008,08,03,10,58,375.30
2008,08,03,10,59,370.70
2008,08,03,11,00,377.80
2008,08,03,11,01,395.40
2008,08,03,11,02,399.00
2008,08,03,11,03,404.80
2008,08,03,11,04,399.60
2008,08,03,11,05,394.00
2008,08,03,11,06,388.70
2008,08,03,11,07,390.60
2008,08,03,11,08,416.70
2008,08,03,11,09,425.00
2008,08,03,11,10,425.00
2008,08,03,11,11,363.30
2008,08,03,11,12,283.00
2008,08,03,11,13,283.00
2008,08,03,11,14,308.00
2008,08,03,11,15,311.00
2008,08,03,11,16,316.70
2008,08,03,11,17,303.10
2008,08,03,11,18,302.00
2008,08,03,11,19,302.00
2008,08,03,11,20,663.90
2008,08,03,11,21,769.70
2008,08,03,11,22,768.80
2008,08,03,11,23,771.10
2008,08,03,11,24,772.00
2008,08,03,11,25,772.00
2008,08,03,11,26,746.00
2008,08,03,11,27,278.00
2008,08,03,11,28,489.40
2008,08,03,11,29,782.10
2008,08,03,11,30,764.30
2008,08,03,11,31,804.30
2008,08,03,11,32,798.20
2008,08,03,11,33,792.10
2008,08,03,11,34,793.30
2008,08,03,11,35,793.40
2008,08,03,11,36,795.00
2008,08,03,11,37,797.50
2008,08,03,11,38,800.00
2008,08,03,11,39,800.00
2008,08,03,11,40,801.00
2008,08,03,11,41,802.60
2008,08,03,11,42,802.30
2008,08,03,11,43,804.80
2008,08,03,11,44,802.50
2008,08,03,11,45,804.00
2008,08,03,11,46,804.00
2008,08,03,11,47,813.50
2008,08,03,11,48,814.50
2008,08,03,11,49,804.60
2008,08,03,11,50,809.00
2008,08,03,11,51,809.30
2008,08,03,11,52,812.00
2008,08,03,11,53,815.40
2008,08,03,11,54,811.80
2008,08,03,11,55,814.00
2008,08,03,11,56,816.00
2008,08,03,11,57,816.00
2008,08,03,11,58,816.00
2008,08,03,11,59,816.00
2008,08,03,12,00,816.90
2008,08,03,12,01,817.20
2008,08,03,12,02,821.00
2008,08,03,12,03,821.90
2008,08,03,12,04,823.00
2008,08,03,12,05,823.00
2008,08,03,12,06,791.90
2008,08,03,12,07,803.30
2008,08,03,12,08,809.00
2008,08,03,12,09,809.00
2008,08,03,12,10,806.70
2008,08,03,12,11,807.40
2008,08,03,12,12,812.90
2008,08,03,12,13,830.00
2008,08,03,12,14,830.30
2008,08,03,12,15,831.00
2008,08,03,12,16,833.60
2008,08,03,12,17,833.40
2008,08,03,12,18,800.60
2008,08,03,12,19,835.20
2008,08,03,12,20,837.00
2008,08,03,12,21,837.00
2008,08,03,12,22,837.60
2008,08,03,12,23,838.00
2008,08,03,12,24,840.00
2008,08,03,12,25,840.30
2008,08,03,12,26,841.30
2008,08,03,12,27,841.00
2008,08,03,12,28,843.30
2008,08,03,12,29,844.00
2008,08,03,12,30,845.70
2008,08,03,12,31,846.00
2008,08,03,12,32,846.00
2008,08,03,12,33,847.60
2008,08,03,12,34,849.00
2008,08,03,12,35,847.30
2008,08,03,12,36,849.00
2008,08,03,12,37,851.00
2008,08,03,12,38,851.00
2008,08,03,12,39,851.00
2008,08,03,12,40,853.20
2008,08,03,12,41,854.00
2008,08,03,12,42,854.00
2008,08,03,12,43,853.00
2008,08,03,12,44,853.40
2008,08,03,12,45,854.00
2008,08,03,12,46,855.50
2008,08,03,12,47,856.00
2008,08,03,12,48,854.20
2008,08,03,12,49,857.60
2008,08,03,12,50,856.00
2008,08,03,12,51,856.00
2008,08,03,12,52,857.60
2008,08,03,12,53,858.00
2008,08,03,12,54,858.00
2008,08,03,12,55,858.50
2008,08,03,12,56,860.00
2008,08,03,12,57,860.00
2008,08,03,12,58,856.80
2008,08,03,12,59,861.00
2008,08,03,13,00,861.20
2008,08,03,13,01,863.00
2008,08,03,13,02,862.10
2008,08,03,13,03,861.00
2008,08,03,13,04,861.00
2008,08,03,13,05,860.00
2008,08,03,13,06,862.60
2008,08,03,13,07,861.00
2008,08,03,13,08,861.90
2008,08,03,13,09,861.60
2008,08,03,13,10,861.00
2008,08,03,13,11,865.00
2008,08,03,13,12,863.30
2008,08,03,13,13,865.00
2008,08,03,13,14,865.00
2008,08,03,13,15,865.00
2008,08,03,13,16,865.00
2008,08,03,13,17,867.00
2008,08,03,13,18,867.00
2008,08,03,13,19,867.00
2008,08,03,13,20,867.00
2008,08,03,13,21,867.00
2008,08,03,13,22,867.90
2008,08,03,13,23,867.10
2008,08,03,13,24,867.00
2008,08,03,13,25,867.00
2008,08,03,13,26,867.50
2008,08,03,13,27,868.00
2008,08,03,13,28,867.10
2008,08,03,13,29,867.00
2008,08,03,13,30,867.00
2008,08,03,13,31,867.00
2008,08,03,13,32,867.00
2008,08,03,13,33,867.00
2008,08,03,13,34,867.00
2008,08,03,13,35,865.20
2008,08,03,13,36,865.60
2008,08,03,13,37,866.30
2008,08,03,13,38,865.00
2008,08,03,13,39,865.00
2008,08,03,13,40,863.30
2008,08,03,13,41,865.00
2008,08,03,13,42,865.00
2008,08,03,13,43,864.10
2008,08,03,13,44,863.00
2008,08,03,13,45,863.00
2008,08,03,13,46,861.00
2008,08,03,13,47,861.30
2008,08,03,13,48,863.00
2008,08,03,13,49,861.90
2008,08,03,13,50,862.30
2008,08,03,13,51,861.70
2008,08,03,13,52,861.00
2008,08,03,13,53,860.00
2008,08,03,13,54,860.00
2008,08,03,13,55,860.00
2008,08,03,13,56,857.30
2008,08,03,13,57,857.40
2008,08,03,13,58,858.00
2008,08,03,13,59,858.00
2008,08,03,14,00,858.00
2008,08,03,14,01,857.20
2008,08,03,14,02,856.00
2008,08,03,14,03,856.00
2008,08,03,14,04,854.00
2008,08,03,14,05,854.00
2008,08,03,14,06,853.60
2008,08,03,14,07,853.00
2008,08,03,14,08,853.70
2008,08,03,14,09,853.10
2008,08,03,14,10,851.00
2008,08,03,14,11,850.60
2008,08,03,14,12,849.00
2008,08,03,14,13,847.80
2008,08,03,14,14,848.30
2008,08,03,14,15,849.00
2008,08,03,14,16,847.00
2008,08,03,14,17,846.70
2008,08,03,14,18,846.00
2008,08,03,14,19,846.00
2008,08,03,14,20,846.00
2008,08,03,14,21,844.10
2008,08,03,14,22,843.80
2008,08,03,14,23,842.00
2008,08,03,14,24,842.00
2008,08,03,14,25,842.00
2008,08,03,14,26,840.70
2008,08,03,14,27,840.00
2008,08,03,14,28,840.00
2008,08,03,14,29,839.00
2008,08,03,14,30,837.50
2008,08,03,14,31,835.90
2008,08,03,14,32,835.00
2008,08,03,14,33,835.00
2008,08,03,14,34,831.00
2008,08,03,14,35,831.00
2008,08,03,14,36,831.00
2008,08,03,14,37,830.30
2008,08,03,14,38,830.00
2008,08,03,14,39,828.00
2008,08,03,14,40,828.40
2008,08,03,14,41,828.50
2008,08,03,14,42,824.90
2008,08,03,14,43,824.00
2008,08,03,14,44,823.30
2008,08,03,14,45,822.80
2008,08,03,14,46,819.00
2008,08,03,14,47,818.30
2008,08,03,14,48,817.00
2008,08,03,14,49,816.40
2008,08,03,14,50,816.90
2008,08,03,14,51,814.00
2008,08,03,14,52,813.60
2008,08,03,14,53,811.20
2008,08,03,14,54,810.00
2008,08,03,14,55,809.30
2008,08,03,14,56,809.00
2008,08,03,14,57,807.00
2008,08,03,14,58,805.00
2008,08,03,14,59,804.10
2008,08,03,15,00,803.00
2008,08,03,15,01,803.00
2008,08,03,15,02,802.00
2008,08,03,15,03,800.00
2008,08,03,15,04,800.00
2008,08,03,15,05,799.10
2008,08,03,15,06,797.00
2008,08,03,15,07,795.40
2008,08,03,15,08,795.00
2008,08,03,15,09,791.00
2008,08,03,15,10,790.40
2008,08,03,15,11,788.60
2008,08,03,15,12,788.00
2008,08,03,15,13,786.30
2008,08,03,15,14,784.00
2008,08,03,15,15,783.70
2008,08,03,15,16,782.00
2008,08,03,15,17,780.90
2008,08,03,15,18,779.30
2008,08,03,15,19,777.60
2008,08,03,15,20,777.00
2008,08,03,15,21,774.50
2008,08,03,15,22,772.40
2008,08,03,15,23,771.60
2008,08,03,15,24,770.00
2008,08,03,15,25,766.40
2008,08,03,15,26,766.00
2008,08,03,15,27,764.60
2008,08,03,15,28,763.00
2008,08,03,15,29,761.80
2008,08,03,15,30,761.00
2008,08,03,15,31,758.30
2008,08,03,15,32,756.00
2008,08,03,15,33,756.00
2008,08,03,15,34,754.40
2008,08,03,15,35,753.20
2008,08,03,15,36,751.70
2008,08,03,15,37,749.50
2008,08,03,15,38,748.80
2008,08,03,15,39,746.40
2008,08,03,15,40,743.70
2008,08,03,15,41,742.00
2008,08,03,15,42,742.00
2008,08,03,15,43,740.30
2008,08,03,15,44,739.50
2008,08,03,15,45,734.40
2008,08,03,15,46,732.10
2008,08,03,15,47,732.30
2008,08,03,15,48,729.10
2008,08,03,15,49,728.00
2008,08,03,15,50,725.70
2008,08,03,15,51,724.00
2008,08,03,15,52,723.00
2008,08,03,15,53,719.90
2008,08,03,15,54,719.00
2008,08,03,15,55,717.30
2008,08,03,15,56,715.00
2008,08,03,15,57,713.90
2008,08,03,15,58,710.90
2008,08,03,15,59,708.80
2008,08,03,16,00,705.80
2008,08,03,16,01,705.00
2008,08,03,16,02,704.10
2008,08,03,16,03,700.00
2008,08,03,16,04,698.90
2008,08,03,16,05,698.00
2008,08,03,16,06,696.20
2008,08,03,16,07,692.90
2008,08,03,16,08,690.60
2008,08,03,16,09,689.00
2008,08,03,16,10,687.30
2008,08,03,16,11,686.00
2008,08,03,16,12,683.00
2008,08,03,16,13,679.90
2008,08,03,16,14,678.50
2008,08,03,16,15,675.40
2008,08,03,16,16,673.00
2008,08,03,16,17,671.50
2008,08,03,16,18,670.10
2008,08,03,16,19,666.20
2008,08,03,16,20,663.70
2008,08,03,16,21,662.20
2008,08,03,16,22,659.70
2008,08,03,16,23,656.50
2008,08,03,16,24,656.00
2008,08,03,16,25,653.50
2008,08,03,16,26,649.70
2008,08,03,16,27,648.10
2008,08,03,16,28,647.00
2008,08,03,16,29,644.40
2008,08,03,16,30,643.00
2008,08,03,16,31,640.00
2008,08,03,16,32,638.70
2008,08,03,16,33,634.50
2008,08,03,16,34,631.70
2008,08,03,16,35,629.60
2008,08,03,16,36,629.00
2008,08,03,16,37,625.60
2008,08,03,16,38,623.00
2008,08,03,16,39,621.00
2008,08,03,16,40,619.80
2008,08,03,16,41,615.40
2008,08,03,16,42,615.00
2008,08,03,16,43,611.70
2008,08,03,16,44,609.30
2008,08,03,16,45,607.00
2008,08,03,16,46,605.30
2008,08,03,16,47,601.50
2008,08,03,16,48,601.00
2008,08,03,16,49,597.60
2008,08,03,16,50,595.30
2008,08,03,16,51,592.20
2008,08,03,16,52,589.50
2008,08,03,16,53,589.00
2008,08,03,16,54,584.90
2008,08,03,16,55,583.50
2008,08,03,16,56,580.40
2008,08,03,16,57,577.40
2008,08,03,16,58,575.40
2008,08,03,16,59,573.10
2008,08,03,17,00,569.90
2008,08,03,17,01,567.60
2008,08,03,17,02,565.20
2008,08,03,17,03,563.40
2008,08,03,17,04,559.80
2008,08,03,17,05,559.00
2008,08,03,17,06,554.90
2008,08,03,17,07,552.90
2008,08,03,17,08,549.10